Regional Weather Roundup
Issued by NWS

Home | Current Version | Previous Version | Text Only | Print | Product List | Glossary Off
Versions: 1 2 3 4 5 6 7 8 9 10 11 12 13 14 15 16 17 18 19 20 21 22 23 24 25 26 27 28 29 30 31 32 33 34 35 36 37 38 39 40 41 42 43 44 45 46 47 48 49 50

000
ASUS43 KBIS 210610
RWRND
NORTH DAKOTA REGIONAL WEATHER ROUNDUP
NATIONAL WEATHER SERVICE EASTERN NORTH DAKOTA/GRAND FORKS ND
100 AM CDT SAT APR 21 2018

  NOTE: "FAIR" INDICATES FEW OR NO CLOUDS BELOW 12,000 FEET WITH NO
  SIGNIFICANT WEATHER AND/OR OBSTRUCTIONS TO VISIBILITY.

NDZ001>003-009>011-017-210700-
...NORTHWEST NORTH DAKOTA...

CITY           SKY/WX    TMP DP  RH WIND       PRES   REMARKS
WILLISTON      FAIR      46  37  71 SE6       30.15S
6HR MIN TEMP:  46; 6HR MAX TEMP:  65;

MINOT          FAIR      48  34  58 S21G30    30.18F
MINOT AFB      FAIR      43  35  73 S12       30.18F
6HR MIN TEMP:  37; 6HR MAX TEMP:  57;

$$

NDZ018>021-031>035-040>046-210700-
...SOUTHWEST NORTH DAKOTA...

CITY           SKY/WX    TMP DP  RH WIND       PRES   REMARKS
BISMARCK       FAIR      36  33  89 SE5       30.28F WCI  32
DICKINSON      FAIR      38  35  89 S9        30.19S WCI  31
GARRISON         N/A     38  32  79 S7        30.23S WCI  33
HETTINGER      FAIR      39  35  86 S14       30.23S WCI  31
$$

NDZ004>008-012>016-024-026-027-054-210700-
...NORTHEAST NORTH DAKOTA...

CITY           SKY/WX    TMP DP  RH WIND       PRES   REMARKS
GRAND FORKS    FAIR      38  37  97 S9        30.33F WCI  31
GRAND FORKS AF FAIR      38  35  88 S9        30.32F WCI  32
DEVILS LAKE    FAIR      35  31  85 SE8       30.29F WCI  29
$$

NDZ022-023-025-028>030-036>039-047>053-210700-
...SOUTHEAST NORTH DAKOTA...

CITY           SKY/WX    TMP DP  RH WIND       PRES   REMARKS
JAMESTOWN      FAIR      38  35  89 S9        30.30F WCI  31
FARGO          FAIR      40  35  83 SE10      30.36F WCI  33
WAHPETON       FAIR      36  32  87 SE7       30.38S WCI  30
$$




USA.gov is the U.S. government's official web portal to all federal, state and local government web resources and services.